Location: Filler
(36.7551°N, 30.4456°E)
Time: 07:56:28
(UTC+00:00)

Cosmos 2298 Rocket - Pass Details

Date: 19 June 2024
Orbit: 774 x 782 km, 74.0° (Epoch: 22 July)

Event Time Altitude Azimuth Distance (km) Brightness Sun altitude
Exits shadow 00:55:12 28° 210° (SSW) 1,428 4.8 -17.0°
Maximum altitude 00:58:02 72° 289° (WNW) 821 4.0 -16.6°
Drops below altitude 10° 01:03:21 10° 14° (NNE) 2,343 7.5 -15.9°
Sets 01:05:45 0° 16° (NNE) 3,275 8.4 -15.5°
